M I D A S
Marine Information and Data Acquisition System
Tripno 1283 of the Zeeleeuw from 2007-06-08 04:51:00 to 2007-06-08 10:51:00
Back to CruiseResearch ActivitiesStationsMapUnderway DataData graphs

EquipmentUnitsComment
TimeDGPSUTC
LatitudeDGPSDM.mWGS84
LongitudeDGPSDM.mWGS84
TemperatureSBE03/SBE38deg celciusITS90
ConductivitySBE21S/mITS90
SalinitySBE21 Practical Salinity Units
ChlorophylAChelsea fluorimeterg/lCalibrated in Aceton
Missing or incorrect values are displayed as -999
Sea surface data collected by the RV Zeeleeuw from 2007-06-08 04:51:00 to 2007-06-08 10:51:00
Time Latitude Longitude Temperature Conductivity Salinity ChlorophylA
2007-06-08 05:14:41 51°13.581 2°56.134 -999 -999 -999 -999
2007-06-08 05:28:11 51°13.581 2°56.127 -999 -999 -999 -999
2007-06-08 05:29:11 51°13.606 2°56.05 -999 -999 -999 -999
2007-06-08 05:30:11 51°13.653 2°55.922 -999 -999 -999 -999
2007-06-08 05:31:11 51°13.711 2°55.793 -999 -999 -999 -999
2007-06-08 05:32:11 51°13.782 2°55.686 -999 -999 -999 -999
2007-06-08 05:33:11 51°13.868 2°55.634 -999 -999 -999 -999
2007-06-08 05:34:11 51°13.938 2°55.652 -999 -999 -999 -999
2007-06-08 05:35:11 51°13.926 2°55.605 -999 -999 -999 -999
2007-06-08 05:36:16 51°13.927 2°55.578 -999 -999 -999 -999
2007-06-08 05:37:16 51°13.994 2°55.535 -999 -999 -999 -999
2007-06-08 05:38:16 51°14.1 2°55.463 -999 -999 -999 -999
2007-06-08 05:39:16 51°14.216 2°55.343 -999 -999 -999 -999
2007-06-08 05:40:16 51°14.33 2°55.14 -999 -999 -999 -999
2007-06-08 05:41:16 51°14.478 2°54.961 -999 -999 -999 -999
2007-06-08 05:42:16 51°14.662 2°54.813 -999 -999 -999 -999
2007-06-08 05:43:16 51°14.846 2°54.663 -999 -999 -999 -999
2007-06-08 05:44:16 51°15.034 2°54.518 -999 -999 -999 -999
2007-06-08 05:45:16 51°15.21 2°54.348 -999 -999 -999 -999
2007-06-08 05:46:16 51°15.388 2°54.185 -999 -999 -999 -999
2007-06-08 05:47:16 51°15.561 2°54.024 -999 -999 -999 -999
2007-06-08 05:48:16 51°15.735 2°53.863 -999 -999 -999 -999
2007-06-08 05:49:16 51°15.915 2°53.7 -999 -999 -999 -999
2007-06-08 05:50:16 51°16.096 2°53.534 -999 -999 -999 -999
2007-06-08 05:51:16 51°16.274 2°53.375 -999 -999 -999 -999
2007-06-08 05:52:16 51°16.452 2°53.215 -999 -999 -999 -999
2007-06-08 05:53:16 51°16.631 2°53.056 -999 -999 -999 -999
2007-06-08 05:54:16 51°16.772 2°52.962 -999 -999 -999 -999
2007-06-08 05:55:16 51°16.837 2°53.086 -999 -999 -999 -999
2007-06-08 05:56:16 51°16.815 2°53.273 -999 -999 -999 -999
2007-06-08 05:57:16 51°16.815 2°53.486 -999 -999 -999 -999
2007-06-08 05:58:16 51°16.815 2°53.697 -999 -999 -999 -999
2007-06-08 05:59:16 51°16.735 2°53.77 -999 -999 -999 -999
2007-06-08 06:00:16 51°16.632 2°53.797 -999 -999 -999 -999
2007-06-08 06:01:16 51°16.526 2°53.863 -999 -999 -999 -999
2007-06-08 06:02:16 51°16.422 2°53.973 -999 -999 -999 -999
2007-06-08 06:03:16 51°16.267 2°54.13 -999 -999 -999 -999
2007-06-08 06:04:15 51°16.099 2°54.281 -999 -999 -999 -999
2007-06-08 06:05:16 51°15.918 2°54.409 -999 -999 -999 -999
2007-06-08 06:06:16 51°15.736 2°54.502 -999 -999 -999 -999
2007-06-08 06:07:15 51°15.554 2°54.57 -999 -999 -999 -999
2007-06-08 06:08:16 51°15.401 2°54.618 -999 -999 -999 -999
2007-06-08 06:09:15 51°15.285 2°54.64 -999 -999 -999 -999
2007-06-08 06:10:16 51°15.181 2°54.643 -999 -999 -999 -999
2007-06-08 06:11:15 51°15.083 2°54.666 -999 -999 -999 -999
2007-06-08 06:12:15 51°14.985 2°54.704 -999 -999 -999 -999
2007-06-08 06:13:16 51°14.887 2°54.74 -999 -999 -999 -999
2007-06-08 06:14:15 51°14.792 2°54.766 -999 -999 -999 -999
2007-06-08 06:15:16 51°14.675 2°54.815 -999 -999 -999 -999
2007-06-08 06:16:15 51°14.487 2°54.924 -999 -999 -999 -999
2007-06-08 06:17:16 51°14.324 2°55.149 -999 -999 -999 -999
2007-06-08 06:18:16 51°14.183 2°55.374 -999 -999 -999 -999
2007-06-08 06:19:16 51°14.05 2°55.482 -999 -999 -999 -999
2007-06-08 06:20:15 51°13.939 2°55.557 -999 -999 -999 -999
2007-06-08 06:21:15 51°13.833 2°55.629 -999 -999 -999 -999
2007-06-08 06:22:16 51°13.744 2°55.73 -999 -999 -999 -999
2007-06-08 06:23:15 51°13.683 2°55.843 -999 -999 -999 -999
2007-06-08 06:24:16 51°13.634 2°55.947 -999 -999 -999 -999
2007-06-08 06:25:15 51°13.603 2°56.035 -999 -999 -999 -999
2007-06-08 06:26:16 51°13.587 2°56.108 -999 -999 -999 -999
2007-06-08 06:27:16 51°13.582 2°56.126 -999 -999 -999 -999
2007-06-08 06:28:17 51°13.579 2°56.133 -999 -999 -999 -999
2007-06-08 06:29:52 51°13.581 2°56.133 -999 -999 -999 -999